Location: Rowland
(34.5359°N, 79.2929°W)
Time: 17:48:57
(UTC+00:00)

A-11 Canister half - Pass Details

Date: 09 October 2022
Orbit: 1515 x 1684 km, 47.2° (Epoch: 06 December)

Event Time Altitude Azimuth Distance (km) Brightness Sun altitude
Rises 01:14:48 0° 258° (WSW) 4,866 12.5 -30.1°
Reaches altitude 10° 01:18:08 10° 264° (W) 3,859 11.9 -30.8°
Maximum altitude 01:27:36 51° 338° (NNW) 1,938 9.6 -32.7°
Enters shadow 01:31:53 32° 34° (NE) 2,440 9.8 -33.5°
